Wind_Speed
30 30 30 31 33 34 35 35 35 35 34 34 35 36 37 37 37 38 39 40 39 38 37 35 32 30 29 30 30 31 32 34 36 36 35 35 33 32 31 30 29 30 30 30 30 30 29 29 30 31 31 31 32 33 33 34 34 34 35 35 36 37 38
29 28 29 29 31 32 33 34 35 34 34 35 36 37 37 37 37 38 39 40 40 39 38 36 33 31 31 31 32 33 34 35 36 36 35 35 33 32 31 30 29 29 30 30 30 30 29 29 30 31 31 31 32 33 34 35 35 36 36 37 37 38 39
28 27 27 29 30 32 33 34 34 35 35 36 37 37 37 38 39 39 40 40 40 40 39 36 34 33 34 34 33 32 33 35 36 36 36 35 33 32 31 31 30 29 29 29 30 30 30 30 30 31 32 32 32 33 34 35 36 37 37 38 39 39 41
28 27 27 29 31 33 34 34 34 35 35 36 37 37 37 39 40 40 40 40 40 40 40 40 38 37 36 34 32 32 34 35 36 36 36 35 34 33 32 31 31 30 29 29 29 30 31 31 31 33 34 34 33 34 35 36 36 38 38 39 40 41 43
28 27 28 30 32 33 34 35 35 35 35 36 38 38 39 40 40 41 41 41 42 43 44 43 40 37 35 34 33 33 35 36 36 37 36 35 34 33 33 32 31 31 30 29 29 30 31 32 32 34 36 36 35 35 36 37 38 39 40 41 42 44 46
27 27 28 30 33 34 34 34 34 35 36 37 38 39 40 40 40 40 40 41 42 42 41 39 36 35 35 34 34 35 36 37 37 37 36 35 34 34 33 32 31 31 31 30 30 30 31 32 33 34 36 38 38 37 38 39 39 40 42 43 44 46 48
26 27 28 31 34 35 35 35 35 36 37 38 39 39 39 39 39 38 38 38 37 37 36 36 36 36 36 35 36 36 37 37 37 37 36 35 34 33 33 32 32 32 31 31 31 31 32 32 34 35 37 38 39 40 40 41 41 42 43 45 47 48 49
27 28 30 32 35 37 37 38 37 37 38 38 39 39 39 38 37 36 35 35 34 34 35 36 36 36 36 37 37 37 38 38 38 36 35 34 33 32 32 32 32 32 32 32 33 34 34 33 34 36 37 38 39 40 41 42 44 45 46 47 49 50 52
27 29 31 34 36 38 38 37 37 37 37 38 38 38 37 36 35 34 34 34 34 34 35 35 35 36 37 37 37 38 38 37 36 34 32 32 32 31 32 32 33 33 34 34 35 35 35 35 35 36 38 38 40 41 42 43 45 47 49 50 51 52 54
27 29 31 34 36 38 37 35 34 35 36 37 37 36 36 35 34 34 33 34 34 34 34 35 36 36 37 37 38 38 37 34 32 30 30 30 30 31 32 32 33 34 34 35 35 35 35 36 36 38 39 40 41 42 44 45 47 49 52 54 55 55 56
27 28 31 34 35 35 33 31 31 33 34 35 35 35 35 34 34 34 33 33 33 33 34 34 35 36 36 37 36 35 32 30 29 28 28 29 30 31 31 32 33 34 35 35 35 35 36 37 38 38 40 41 43 44 45 48 50 52 55 57 58 59 58
27 29 31 32 32 30 29 28 30 31 32 33 33 33 33 33 32 32 31 31 31 32 33 34 34 35 35 33 31 29 28 27 27 27 28 29 30 31 31 32 33 34 35 36 36 36 37 38 39 40 41 43 45 46 48 50 53 55 57 59 60 60 60
27 29 29 29 28 26 25 26 28 29 30 31 31 31 31 30 29 29 29 30 31 32 33 33 33 32 30 28 27 26 26 26 27 27 28 29 30 31 31 32 33 35 36 36 36 37 37 39 41 41 43 45 47 49 51 53 55 56 58 59 60 61 60
28 28 27 26 24 23 23 25 27 28 29 29 29 28 28 28 28 29 30 31 31 32 32 31 30 28 26 25 25 25 26 27 27 28 29 29 30 31 32 33 34 36 37 37 37 38 38 40 42 43 45 47 49 51 53 55 57 58 58 59 60 61 60
27 27 26 23 22 21 22 24 25 27 27 27 27 26 26 27 28 30 31 31 30 30 29 27 25 25 24 25 25 26 27 28 28 28 29 30 30 31 32 34 36 37 38 38 39 39 40 41 43 45 47 48 50 52 55 57 58 59 59 60 61 60 59
26 25 23 22 21 21 22 23 24 25 25 24 25 25 27 29 30 30 30 29 28 26 25 24 24 24 25 25 26 26 27 28 28 29 30 30 31 32 33 35 38 39 39 39 40 41 42 44 45 46 48 49 51 54 56 58 59 59 60 61 61 60 59
24 23 22 21 20 20 21 22 23 23 23 23 25 27 29 30 30 29 28 26 25 24 24 24 24 25 25 26 27 27 28 29 29 30 31 32 32 33 34 37 39 39 39 40 41 42 44 46 47 48 50 51 53 55 57 59 59 59 60 62 62 61 59
24 23 21 20 20 20 21 21 21 22 23 25 27 28 29 28 27 27 25 24 23 23 24 24 25 26 27 27 28 28 29 30 30 31 32 33 33 34 35 37 39 40 41 42 43 45 46 47 48 49 51 52 54 55 57 59 60 61 62 62 61 60 58
24 23 22 20 20 21 21 21 22 23 25 27 27 27 27 27 26 25 24 23 23 24 25 25 26 27 28 28 29 30 30 31 32 32 33 34 35 35 36 38 39 40 42 43 45 46 47 48 49 50 52 53 54 55 57 59 60 61 61 60 59 58 57
23 23 22 22 21 21 21 22 23 25 26 27 27 27 26 25 25 24 24 24 24 25 26 27 28 28 29 30 30 31 32 33 33 34 34 35 36 37 37 39 40 41 43 45 46 47 48 48 49 51 52 53 54 55 57 58 59 59 58 57 57 57 57
23 23 22 22 22 22 23 24 25 26 27 27 26 26 26 25 24 24 24 25 25 26 27 28 29 30 30 31 31 32 33 34 34 35 36 36 38 39 40 41 42 43 45 46 47 47 48 48 49 51 52 54 55 56 57 57 56 55 54 55 56 57 58
24 23 23 23 23 23 24 25 26 27 27 27 27 26 26 25 25 25 25 26 27 28 29 29 30 31 31 31 32 33 34 34 35 36 37 38 39 41 42 44 45 46 46 47 47 48 48 49 50 51 52 54 55 55 54 53 52 52 53 54 56 56 57
24 24 24 25 24 25 25 26 27 27 27 28 28 27 27 26 26 26 27 27 28 29 30 30 31 32 32 32 33 34 34 35 36 37 38 39 41 43 44 46 47 47 48 48 48 49 49 49 50 52 53 53 52 51 50 50 50 51 52 53 54 54 54
25 26 26 26 26 26 27 28 28 29 29 29 29 28 28 28 28 28 28 29 30 31 31 32 32 32 33 33 34 35 35 36 37 38 39 41 43 45 47 48 48 49 49 50 49 50 50 50 51 52 51 50 49 49 49 49 50 51 51 51 51 51 51
26 26 27 27 28 28 29 29 30 30 30 30 30 30 30 30 29 30 30 31 32 33 33 33 33 33 34 34 35 36 36 36 37 39 41 43 45 46 48 48 49 50 51 51 51 51 52 52 51 50 49 48 48 48 49 49 49 49 49 48 48 48 47
27 27 28 28 29 30 30 31 31 32 32 31 31 31 31 31 31 32 32 33 33 34 34 34 34 34 35 36 36 36 37 37 38 40 42 44 46 47 48 49 50 51 52 52 53 53 54 53 50 48 47 47 48 49 49 49 48 47 46 45 45 44 43
28 29 29 29 30 32 33 33 33 33 32 32 32 33 33 33 33 34 34 34 35 36 36 35 35 35 36 36 36 36 37 38 39 41 43 45 46 47 48 49 50 51 52 53 54 55 54 51 49 48 47 48 49 49 48 47 46 44 42 41 41 40 38
28 29 30 31 33 34 35 34 34 34 33 33 34 34 34 35 35 35 35 36 37 37 37 36 36 36 36 36 36 36 37 39 41 43 44 46 46 47 48 49 50 52 53 54 54 54 52 49 47 47 47 47 48 47 45 44 43 40 38 37 36 35 33
30 31 32 33 35 35 35 35 35 35 35 35 35 35 36 36 37 37 37 37 38 38 37 37 37 36 36 36 36 38 39 41 43 45 45 46 46 47 48 49 50 52 52 53 53 51 49 47 46 46 46 46 46 44 42 40 39 36 35 34 33 32 30
32 33 33 34 35 36 36 36 36 37 37 37 36 37 37 38 38 39 39 39 40 40 39 38 37 36 35 36 38 40 41 43 45 45 45 45 46 47 48 49 50 51 51 51 50 48 47 46 45 45 45 44 42 40 38 36 35 33 32 31 31 30 28
32 34 35 36 36 36 36 36 37 38 38 38 38 38 39 39 39 40 39 40 41 41 39 38 37 36 36 38 40 42 43 44 45 45 45 45 46 47 48 49 49 49 49 49 47 46 45 45 44 44 42 40 38 36 34 33 32 31 31 30 30 29 27
33 35 37 37 37 37 37 37 38 38 38 38 39 39 40 40 40 41 41 42 42 41 39 37 37 37 38 40 41 42 43 44 44 45 45 46 47 48 48 48 48 48 48 47 46 45 45 44 43 41 39 37 36 34 32 31 30 30 30 31 30 29 27
35 37 38 37 37 37 36 37 37 38 39 40 41 41 41 42 42 43 42 42 42 40 38 38 39 40 41 41 42 42 43 44 45 45 46 48 48 48 48 47 47 47 46 45 45 44 44 43 40 38 37 35 34 33 31 30 30 30 30 31 30 29 28
36 36 36 36 35 35 35 36 38 39 41 42 42 42 42 43 44 43 42 41 41 40 40 40 41 42 42 42 42 43 44 45 46 47 48 48 48 48 48 47 46 45 44 44 44 44 43 41 38 36 35 34 33 32 31 30 30 30 31 31 31 30 30
36 35 35 34 34 35 36 38 40 42 42 42 42 42 43 45 45 43 42 41 41 41 41 42 43 43 43 43 44 45 46 47 47 48 48 48 48 48 48 46 45 44 43 44 44 43 41 39 36 35 35 34 34 33 31 31 31 32 32 32 32 31 31
36 35 34 34 34 36 38 40 42 43 43 42 42 43 45 46 45 43 42 41 41 41 42 43 44 44 45 45 46 47 48 48 49 48 48 49 48 48 47 46 44 43 43 43 43 42 40 38 36 35 35 35 35 34 32 32 32 33 33 33 33 33 32
Wind_Direction
275 271 267 262 259 257 257 255 251 249 249 248 248 247 246 246 244 242 241 240 238 236 234 237 246 254 261 266 268 268 270 277 283 284 285 289 289 286 285 283 279 276 273 272 271 269 268 268 269 270 270 272 273 274 275 276 277 278 279 280 281 282 283
276 272 267 263 259 257 258 256 252 248 247 246 247 248 248 247 245 243 242 242 241 239 238 241 250 258 263 266 267 269 273 278 280 281 284 288 286 283 282 279 275 273 271 270 269 267 266 266 267 269 270 271 272 274 275 277 278 279 280 281 282 283 284
276 271 266 262 260 258 257 257 253 248 245 245 246 247 248 248 247 244 243 242 242 242 242 246 255 263 265 266 267 270 274 276 278 281 285 286 284 282 279 276 273 270 269 270 270 269 269 269 269 270 271 272 272 273 275 277 279 281 282 283 284 284 284
277 271 264 259 257 256 257 256 252 247 244 243 245 245 246 246 246 246 244 243 242 243 246 252 260 264 264 265 268 271 273 275 278 282 284 284 282 280 278 275 272 270 269 268 269 271 273 273 274 274 275 275 277 278 279 280 281 282 283 284 285 285 285
278 274 265 257 254 254 255 254 251 246 242 242 243 244 244 245 246 247 245 244 244 246 250 255 258 259 262 267 271 272 274 276 279 282 283 281 280 279 277 274 272 270 269 268 269 271 273 275 276 278 279 280 281 282 283 283 284 284 285 285 286 287 287
279 275 267 259 254 254 255 254 251 246 242 241 242 243 244 245 247 248 249 250 251 252 254 254 254 257 263 269 271 273 274 277 280 282 281 279 278 278 275 273 272 270 270 270 271 272 274 276 278 280 281 281 282 283 283 284 285 285 286 286 287 288 289
278 275 269 263 258 256 256 256 252 246 241 240 241 242 244 246 248 250 251 253 254 255 254 253 254 259 264 268 270 273 276 279 280 280 278 277 276 275 273 272 272 272 272 273 273 274 276 277 279 280 281 283 284 284 285 285 285 286 287 287 288 290 291
277 275 271 265 260 257 256 255 253 247 242 240 240 242 244 247 248 249 250 251 252 253 254 255 257 259 263 267 270 273 276 278 278 277 275 274 273 273 272 273 273 274 275 276 277 278 279 281 282 282 283 284 285 285 286 287 288 288 288 288 288 290 291
275 276 273 266 261 257 255 255 254 249 244 241 240 241 243 245 247 247 248 250 252 254 256 257 258 260 264 268 272 275 277 277 275 273 271 271 271 271 272 273 274 276 277 278 280 281 282 284 285 285 285 286 286 287 288 289 289 288 288 288 288 290 291
273 277 275 269 263 258 257 256 255 252 248 244 242 242 243 245 247 248 250 253 255 256 257 257 258 261 265 269 273 275 275 274 271 268 267 268 269 270 272 274 275 277 279 281 282 284 285 286 286 287 287 287 287 288 288 288 288 288 288 288 288 289 291
273 277 276 270 264 260 259 259 256 253 250 247 246 245 245 247 249 251 254 256 257 257 258 258 260 263 267 270 271 271 269 267 266 265 266 268 270 271 274 276 277 279 280 281 283 284 286 286 287 288 288 288 288 288 288 288 288 288 289 289 289 290 291
275 276 273 267 262 259 259 259 256 254 251 248 247 246 247 249 251 253 255 257 257 258 259 261 264 267 268 268 267 265 263 263 264 266 268 270 272 274 276 277 278 279 280 282 283 285 286 287 287 288 288 288 288 288 289 289 290 290 291 291 292 292 292
276 274 269 264 259 258 259 258 256 254 251 249 247 247 249 251 252 254 256 256 257 259 262 265 267 267 266 264 263 263 264 266 268 269 271 273 274 276 277 278 279 279 280 282 284 285 286 287 287 288 288 289 289 289 290 291 291 291 292 292 292 292 293
275 272 266 260 255 255 257 257 256 254 251 250 249 249 250 252 253 255 257 258 260 263 265 266 265 264 262 262 264 265 267 268 270 271 273 274 275 277 278 279 280 280 281 283 284 285 286 286 287 288 289 290 290 291 292 292 292 292 293 293 293 293 295
273 268 261 255 252 252 255 255 254 252 251 250 250 250 252 254 255 257 258 260 263 264 264 263 261 261 262 264 266 267 269 271 272 273 275 276 277 278 280 280 280 281 283 284 285 286 286 287 288 289 290 291 292 293 293 293 293 294 294 293 293 293 294
271 265 257 251 249 250 252 252 251 250 250 249 250 251 253 255 256 258 260 262 262 261 260 260 261 263 265 267 269 271 272 274 275 276 277 277 278 279 281 281 281 282 284 285 285 286 287 289 290 291 292 293 294 294 293 293 293 293 293 293 293 293 294
267 260 252 247 246 248 250 249 248 247 247 248 249 251 253 255 258 259 260 259 258 258 259 262 264 266 268 270 271 272 274 275 276 277 277 278 279 280 281 281 281 283 285 285 287 288 290 291 293 293 294 294 294 294 293 293 293 293 293 293 294 295 295
262 255 247 242 242 244 245 243 242 242 244 247 250 253 255 257 258 257 256 257 258 261 263 265 268 269 271 272 273 274 275 275 276 277 277 278 279 279 279 280 282 284 286 287 289 290 291 292 293 294 294 294 294 294 293 294 294 294 294 295 296 296 296
257 250 242 237 237 239 239 237 238 240 244 249 252 255 256 256 255 255 256 259 262 264 266 268 270 272 273 274 275 276 276 276 277 277 278 278 279 279 279 280 282 284 286 287 289 290 291 293 293 294 294 293 293 293 293 293 293 294 295 295 296 296 295
251 244 238 233 231 233 233 233 237 241 246 251 253 254 253 253 254 256 258 261 264 266 269 271 272 274 275 276 277 277 278 278 279 279 280 280 281 281 281 282 283 284 285 287 288 289 291 292 293 293 293 293 293 293 292 293 293 294 294 294 294 294 293
247 240 234 229 227 228 229 232 237 243 248 251 251 251 251 252 255 258 261 264 267 270 272 273 274 276 276 276 278 278 279 280 281 281 282 282 282 282 282 283 284 284 286 287 289 290 291 292 293 292 292 292 292 292 292 292 292 293 292 292 291 291 290
243 236 230 226 224 225 229 234 239 245 248 249 248 249 251 254 257 260 264 267 270 272 274 275 275 276 276 277 278 279 280 281 282 282 282 282 282 282 283 284 285 286 287 289 290 291 292 292 292 291 291 291 291 291 291 290 290 290 290 289 289 289 289
240 232 227 224 223 225 230 236 242 245 246 247 247 250 252 255 259 262 266 269 272 273 275 275 275 275 276 277 278 279 280 280 281 281 281 282 283 283 284 286 287 288 289 290 291 292 292 292 291 291 291 291 291 290 289 289 289 288 288 288 288 288 289
238 230 225 222 221 226 232 238 243 244 245 246 249 252 255 257 261 265 268 271 273 275 275 275 275 276 277 278 279 280 280 280 280 281 282 283 284 285 286 287 289 290 291 292 293 293 293 292 292 292 292 291 290 289 288 288 288 288 287 287 287 287 288
236 228 222 220 222 229 236 241 244 245 245 248 252 254 257 260 263 267 270 272 274 275 275 276 276 277 278 280 280 280 280 280 280 281 282 283 284 286 287 289 290 292 293 294 295 295 295 295 294 294 293 292 291 290 290 289 289 288 287 287 287 286 287
234 226 221 220 224 232 238 242 244 246 247 250 254 256 259 262 266 269 272 273 275 276 276 277 277 278 279 280 280 280 279 279 280 281 282 284 286 287 289 290 292 293 295 296 296 296 296 296 296 295 294 293 292 291 290 290 289 288 287 287 285 285 286
235 228 222 222 227 234 240 243 245 248 250 253 255 258 261 265 268 271 273 275 276 276 276 277 277 278 279 279 278 278 278 279 280 282 284 285 287 289 290 291 293 294 295 296 296 296 296 296 295 294 294 292 291 291 290 289 288 287 286 285 283 284 286
234 229 225 226 231 236 241 245 248 251 253 255 258 261 264 267 270 272 274 276 277 277 277 277 278 279 279 278 278 278 279 281 282 283 285 286 287 288 290 291 292 293 294 294 294 294 294 294 294 294 293 291 290 290 289 289 287 286 285 283 283 285 286
232 230 231 232 235 239 243 247 250 252 254 257 261 264 267 270 273 275 277 278 278 278 279 280 281 280 279 279 279 279 281 282 283 284 284 285 286 287 289 290 291 292 293 293 293 293 293 293 293 293 291 290 289 289 288 287 286 285 284 283 283 285 285
237 235 238 240 242 244 247 250 252 254 257 260 264 267 271 273 275 277 278 279 279 280 281 281 280 278 277 277 278 279 280 281 281 282 283 285 286 288 289 291 292 292 292 291 291 292 293 293 293 292 290 289 288 287 286 285 284 283 282 282 283 283 283
242 240 240 242 245 247 250 251 253 256 259 263 267 271 274 275 276 277 278 279 279 279 279 278 277 275 275 276 277 278 279 280 281 283 285 287 288 290 291 292 292 292 291 291 291 292 292 292 292 290 288 286 285 284 284 282 281 281 281 281 281 282 281
241 241 243 245 248 250 252 253 255 258 262 267 271 273 275 276 277 278 279 279 279 279 278 276 275 275 275 276 277 278 280 281 283 286 288 289 290 291 292 292 292 291 290 291 291 292 292 291 290 288 285 283 283 282 281 280 279 279 280 280 280 281 280
241 242 244 246 248 250 252 255 258 263 267 271 273 274 275 276 277 278 279 279 279 278 277 276 275 276 277 278 280 281 283 285 287 289 290 291 292 293 292 291 291 290 290 290 291 291 291 290 287 284 281 280 280 280 279 278 278 277 278 279 279 280 280
244 245 246 247 249 252 256 260 264 267 269 271 272 273 275 276 277 279 279 279 278 277 276 276 277 279 281 283 285 286 288 289 290 290 291 292 292 292 292 291 289 289 289 290 290 290 289 287 283 279 278 277 277 278 278 277 277 276 275 277 278 279 279
245 246 248 249 253 257 261 265 267 269 270 272 273 274 275 277 279 279 279 277 276 276 277 279 281 284 286 287 288 289 289 290 291 291 292 292 292 292 291 290 289 289 289 289 289 288 286 283 279 277 276 276 276 276 276 276 275 275 274 275 276 277 278
243 245 247 251 255 260 263 266 268 269 271 273 274 275 277 278 279 279 278 277 277 279 281 283 285 287 288 288 289 289 290 291 292 292 292 292 292 291 290 290 289 288 288 288 288 286 283 280 277 276 275 275 275 275 275 275 274 274 274 275 276 276 277
Height
2998 2999 2999 3000 3001 3002 3003 3003 3003 3004 3005 3006 3008 3009 3009 3011 3012 3014 3016 3017 3018 3019 3020 3021 3021 3021 3021 3021 3022 3023 3024 3024 3025 3025 3025 3025 3024 3023 3023 3022 3022 3021 3021 3021 3021 3021 3020 3020 3020 3020 3020 3020 3019 3019 3019 3018 3018 3018 3018 3017 3017 3016 3015
2994 2994 2995 2996 2997 2998 2998 2999 2999 3000 3001 3003 3004 3005 3005 3006 3008 3009 3011 3012 3014 3015 3016 3017 3017 3017 3017 3018 3018 3019 3020 3020 3020 3021 3021 3021 3020 3019 3019 3018 3018 3018 3017 3017 3017 3017 3017 3017 3017 3016 3016 3016 3016 3015 3015 3014 3014 3014 3013 3013 3012 3011 3010
2990 2990 2991 2992 2993 2994 2994 2994 2995 2996 2997 2998 2999 3000 3001 3002 3003 3005 3006 3008 3010 3011 3012 3013 3013 3014 3014 3014 3014 3015 3015 3015 3016 3016 3016 3016 3016 3015 3015 3015 3014 3014 3013 3013 3012 3012 3012 3012 3012 3012 3012 3012 3012 3012 3011 3010 3010 3009 3008 3008 3007 3006 3005
2986 2986 2987 2988 2989 2990 2990 2990 2990 2991 2992 2994 2995 2996 2997 2998 2999 3000 3002 3003 3005 3007 3008 3009 3009 3010 3011 3011 3010 3010 3011 3011 3011 3012 3011 3011 3011 3010 3010 3010 3010 3010 3010 3009 3008 3008 3007 3007 3007 3007 3007 3007 3007 3007 3006 3006 3005 3004 3003 3003 3001 3000 2999
2982 2983 2983 2984 2985 2986 2986 2986 2986 2987 2988 2989 2991 2992 2993 2994 2995 2996 2998 2999 3001 3002 3003 3004 3005 3006 3006 3006 3006 3006 3006 3006 3007 3007 3006 3006 3006 3006 3006 3005 3006 3005 3005 3005 3005 3004 3003 3003 3003 3002 3002 3002 3002 3002 3001 3001 3000 2999 2998 2997 2996 2994 2992
2979 2979 2979 2980 2981 2981 2981 2982 2982 2982 2984 2985 2986 2988 2989 2990 2992 2993 2994 2995 2996 2998 2999 3000 3001 3002 3002 3001 3001 3001 3002 3002 3002 3002 3001 3001 3001 3000 3000 3000 3000 3001 3001 3001 3001 3000 3000 2999 2998 2998 2997 2996 2996 2996 2996 2995 2995 2994 2992 2991 2990 2988 2986
2975 2975 2975 2976 2976 2977 2977 2977 2978 2978 2979 2980 2982 2983 2985 2986 2987 2989 2990 2991 2992 2993 2994 2995 2996 2997 2997 2997 2997 2997 2997 2997 2997 2997 2996 2996 2995 2995 2995 2995 2995 2995 2996 2996 2996 2996 2996 2995 2995 2994 2993 2992 2991 2990 2990 2989 2989 2988 2987 2985 2983 2981 2980
2970 2970 2971 2971 2972 2972 2972 2972 2973 2974 2975 2976 2978 2979 2981 2982 2983 2984 2986 2987 2988 2989 2990 2991 2992 2992 2992 2992 2992 2992 2992 2993 2992 2992 2991 2991 2991 2990 2990 2990 2990 2990 2990 2990 2990 2990 2991 2991 2990 2989 2988 2987 2986 2985 2984 2983 2982 2981 2980 2979 2978 2976 2973
2966 2966 2967 2967 2967 2967 2968 2968 2969 2970 2971 2972 2973 2975 2976 2978 2979 2980 2982 2983 2984 2985 2986 2987 2987 2988 2988 2988 2988 2988 2988 2988 2988 2987 2987 2987 2986 2986 2986 2986 2986 2985 2985 2985 2985 2985 2985 2985 2985 2984 2983 2983 2981 2980 2979 2978 2976 2975 2973 2972 2972 2971 2968
2962 2962 2962 2962 2962 2963 2963 2964 2966 2967 2968 2969 2970 2972 2973 2974 2976 2977 2978 2979 2980 2981 2981 2982 2982 2983 2983 2983 2983 2983 2983 2983 2983 2983 2983 2983 2982 2982 2982 2982 2981 2981 2981 2980 2980 2980 2980 2980 2979 2979 2978 2977 2976 2975 2974 2972 2971 2969 2968 2966 2965 2964 2962
2957 2958 2958 2958 2958 2959 2960 2961 2962 2963 2965 2966 2967 2968 2970 2971 2972 2973 2974 2975 2976 2976 2977 2977 2978 2978 2978 2978 2978 2978 2978 2978 2978 2978 2979 2979 2979 2978 2978 2978 2977 2976 2976 2976 2975 2975 2975 2975 2974 2974 2972 2971 2970 2969 2968 2966 2965 2963 2961 2959 2956 2956 2955
2953 2953 2953 2954 2954 2955 2956 2958 2959 2960 2961 2962 2964 2965 2966 2967 2968 2969 2970 2971 2972 2972 2972 2973 2973 2973 2973 2973 2973 2973 2974 2974 2974 2974 2974 2974 2974 2974 2974 2973 2973 2972 2971 2971 2971 2971 2971 2969 2969 2968 2967 2965 2964 2963 2961 2960 2958 2955 2953 2950 2948 2946 2945
2949 2949 2949 2950 2951 2952 2953 2954 2955 2957 2958 2959 2960 2962 2963 2964 2965 2966 2966 2967 2967 2968 2968 2968 2968 2968 2968 2968 2969 2969 2969 2970 2970 2970 2970 2970 2970 2970 2969 2969 2968 2967 2967 2967 2967 2967 2966 2964 2963 2962 2961 2960 2958 2956 2955 2952 2951 2948 2945 2943 2940 2937 2936
2945 2945 2945 2946 2947 2948 2950 2951 2952 2953 2955 2956 2957 2958 2959 2961 2961 2962 2963 2963 2963 2964 2964 2964 2964 2964 2964 2964 2965 2965 2965 2966 2966 2966 2966 2966 2965 2965 2965 2964 2963 2962 2962 2962 2962 2962 2961 2959 2958 2957 2955 2954 2951 2949 2947 2945 2942 2940 2937 2935 2931 2929 2928
2941 2941 2941 2942 2943 2945 2946 2948 2949 2950 2952 2953 2954 2955 2956 2957 2958 2958 2959 2959 2959 2960 2960 2960 2960 2960 2960 2961 2961 2961 2961 2961 2961 2961 2961 2961 2961 2960 2960 2959 2957 2956 2957 2957 2956 2956 2955 2954 2952 2951 2949 2947 2945 2942 2939 2936 2933 2931 2928 2925 2923 2921 2921
2937 2937 2938 2939 2940 2941 2943 2944 2945 2947 2948 2950 2951 2952 2953 2954 2954 2955 2955 2955 2956 2956 2956 2956 2956 2956 2957 2957 2957 2957 2957 2957 2957 2957 2957 2956 2956 2956 2955 2954 2952 2951 2952 2951 2950 2950 2948 2947 2946 2944 2942 2940 2937 2934 2931 2928 2925 2923 2920 2916 2914 2914 2913
2933 2934 2934 2935 2936 2938 2939 2941 2942 2944 2945 2947 2948 2949 2950 2950 2951 2951 2951 2952 2952 2952 2952 2952 2952 2952 2953 2953 2953 2953 2953 2953 2952 2952 2952 2952 2951 2951 2951 2948 2946 2946 2946 2945 2944 2943 2942 2940 2939 2937 2935 2933 2930 2926 2922 2919 2917 2915 2912 2908 2906 2905 2904
2930 2930 2931 2932 2933 2934 2936 2937 2939 2940 2942 2943 2945 2946 2946 2947 2947 2947 2948 2948 2948 2948 2948 2948 2948 2948 2948 2948 2948 2948 2948 2948 2948 2947 2947 2947 2946 2946 2946 2943 2942 2941 2940 2939 2938 2937 2935 2934 2932 2930 2928 2926 2922 2919 2915 2911 2908 2906 2903 2900 2899 2896 2895
2926 2926 2927 2928 2929 2931 2932 2934 2936 2937 2939 2940 2941 2942 2943 2943 2943 2944 2944 2944 2945 2945 2945 2945 2945 2944 2944 2944 2944 2944 2943 2943 2943 2942 2942 2941 2941 2941 2940 2938 2937 2936 2935 2933 2932 2931 2929 2928 2926 2924 2921 2918 2915 2912 2908 2904 2901 2898 2895 2893 2891 2888 2886
2922 2923 2923 2925 2926 2928 2929 2931 2932 2934 2935 2937 2938 2938 2939 2939 2940 2940 2940 2941 2941 2941 2941 2941 2941 2940 2940 2940 2939 2939 2938 2938 2937 2937 2936 2936 2935 2934 2934 2933 2932 2931 2929 2928 2927 2926 2924 2922 2920 2917 2914 2911 2908 2905 2901 2898 2895 2892 2890 2886 2884 2882 2879
2918 2919 2920 2921 2923 2924 2926 2928 2929 2931 2932 2933 2934 2934 2935 2935 2936 2936 2937 2937 2937 2937 2937 2936 2936 2936 2936 2935 2935 2934 2933 2932 2932 2931 2930 2929 2928 2928 2927 2926 2926 2925 2923 2922 2921 2919 2918 2916 2914 2911 2907 2904 2901 2898 2895 2892 2889 2887 2884 2880 2877 2875 2872
2915 2916 2917 2918 2920 2921 2923 2924 2926 2927 2928 2929 2930 2930 2931 2931 2932 2932 2933 2933 2933 2932 2932 2932 2931 2931 2931 2930 2930 2929 2928 2927 2926 2925 2924 2923 2922 2921 2920 2919 2919 2918 2917 2916 2914 2913 2911 2909 2907 2904 2901 2897 2894 2891 2888 2886 2884 2881 2878 2875 2871 2869 2866
2911 2912 2914 2915 2917 2918 2920 2921 2922 2923 2924 2925 2926 2926 2926 2927 2927 2928 2928 2928 2928 2927 2927 2927 2927 2926 2926 2925 2925 2924 2923 2922 2921 2919 2918 2917 2916 2915 2913 2912 2911 2910 2909 2908 2907 2906 2904 2902 2899 2896 2893 2891 2888 2885 2882 2880 2878 2875 2872 2869 2866 2862 2859
2908 2909 2910 2912 2914 2915 2916 2917 2918 2919 2920 2921 2921 2922 2922 2922 2923 2923 2923 2923 2923 2923 2922 2922 2922 2921 2921 2920 2919 2918 2917 2916 2915 2913 2912 2911 2909 2908 2907 2905 2904 2903 2901 2900 2899 2898 2896 2894 2891 2888 2886 2883 2881 2878 2876 2874 2871 2868 2865 2862 2859 2856 2854
2904 2906 2907 2909 2910 2912 2913 2913 2914 2915 2915 2916 2917 2917 2917 2918 2918 2918 2918 2918 2918 2918 2917 2917 2917 2916 2916 2915 2914 2913 2911 2910 2909 2908 2906 2905 2903 2901 2900 2898 2896 2895 2893 2892 2891 2889 2886 2885 2883 2880 2878 2876 2873 2870 2868 2866 2863 2860 2858 2856 2853 2850 2848
2901 2902 2903 2905 2907 2908 2909 2909 2910 2910 2911 2912 2912 2912 2912 2913 2913 2913 2913 2913 2913 2912 2912 2912 2912 2911 2911 2909 2908 2907 2906 2905 2903 2902 2901 2899 2897 2895 2893 2891 2889 2887 2885 2883 2882 2879 2877 2876 2874 2872 2870 2868 2865 2862 2860 2858 2856 2853 2851 2849 2847 2844 2843
2897 2898 2900 2902 2903 2904 2904 2905 2906 2906 2907 2907 2907 2907 2908 2908 2908 2908 2908 2908 2907 2907 2907 2907 2907 2906 2905 2904 2902 2901 2900 2899 2898 2896 2895 2893 2891 2889 2887 2885 2883 2880 2878 2876 2874 2871 2870 2868 2867 2865 2863 2860 2857 2855 2853 2850 2848 2846 2845 2843 2841 2839 2838
2894 2895 2897 2898 2898 2899 2900 2901 2902 2902 2902 2902 2902 2903 2903 2903 2903 2903 2902 2902 2901 2901 2901 2901 2901 2900 2899 2898 2896 2895 2894 2893 2892 2890 2889 2887 2886 2884 2881 2879 2877 2874 2872 2869 2866 2864 2863 2862 2860 2858 2856 2853 2850 2848 2846 2844 2841 2840 2839 2837 2835 2834 2833
2891 2892 2892 2893 2894 2895 2896 2897 2898 2897 2897 2897 2898 2898 2898 2898 2897 2897 2896 2896 2895 2895 2895 2895 2895 2894 2893 2891 2890 2889 2888 2887 2885 2884 2883 2882 2880 2877 2875 2873 2870 2868 2866 2862 2859 2858 2857 2855 2853 2851 2849 2846 2843 2842 2840 2837 2835 2834 2833 2831 2830 2829 2828
2887 2887 2888 2889 2890 2891 2892 2893 2892 2892 2892 2893 2893 2892 2892 2892 2892 2891 2891 2890 2889 2889 2889 2889 2888 2888 2887 2885 2884 2883 2882 2881 2879 2878 2877 2875 2873 2871 2869 2866 2864 2861 2858 2855 2853 2852 2850 2848 2846 2844 2842 2839 2837 2836 2834 2832 2830 2829 2827 2826 2825 2824 2824
2883 2883 2884 2885 2886 2887 2887 2888 2887 2887 2887 2887 2887 2887 2887 2886 2886 2885 2885 2884 2883 2883 2883 2883 2882 2881 2881 2880 2878 2877 2877 2875 2873 2872 2870 2868 2866 2864 2861 2859 2856 2853 2850 2848 2847 2845 2843 2841 2839 2837 2835 2833 2831 2830 2828 2827 2825 2824 2822 2821 2820 2820 2819
2879 2880 2880 2881 2881 2882 2882 2882 2882 2882 2882 2882 2881 2881 2880 2880 2879 2879 2879 2878 2877 2877 2877 2876 2875 2875 2874 2873 2872 2871 2870 2868 2866 2864 2862 2860 2859 2857 2854 2851 2849 2846 2843 2841 2840 2838 2836 2834 2832 2830 2829 2827 2825 2824 2823 2821 2820 2819 2817 2816 2815 2815 2815
2875 2875 2875 2876 2876 2877 2877 2877 2877 2877 2876 2875 2875 2875 2874 2874 2873 2873 2872 2872 2870 2870 2869 2869 2868 2868 2867 2866 2865 2864 2862 2860 2858 2856 2854 2852 2851 2849 2847 2844 2841 2839 2837 2835 2833 2831 2829 2828 2826 2824 2822 2821 2820 2818 2817 2816 2815 2814 2812 2811 2811 2810 2809
2870 2871 2871 2871 2871 2871 2872 2872 2871 2871 2870 2869 2869 2869 2868 2868 2867 2867 2866 2865 2864 2863 2862 2862 2861 2860 2859 2858 2857 2855 2854 2852 2850 2848 2846 2845 2843 2840 2839 2837 2834 2832 2830 2828 2826 2824 2823 2821 2820 2818 2816 2815 2814 2813 2812 2811 2810 2809 2808 2807 2806 2805 2804
2865 2865 2865 2866 2866 2867 2867 2866 2865 2865 2864 2863 2863 2863 2862 2861 2861 2860 2860 2858 2857 2856 2855 2854 2853 2852 2851 2850 2848 2847 2845 2844 2842 2841 2839 2837 2835 2832 2831 2829 2827 2825 2823 2821 2819 2817 2816 2814 2813 2812 2810 2809 2808 2808 2807 2806 2805 2804 2803 2802 2801 2800 2799
2859 2860 2860 2860 2861 2861 2861 2860 2859 2858 2858 2858 2858 2856 2855 2854 2854 2853 2852 2851 2850 2849 2848 2847 2846 2845 2843 2842 2840 2839 2837 2836 2834 2833 2831 2828 2826 2825 2823 2821 2819 2818 2816 2814 2812 2811 2809 2808 2807 2806 2804 2803 2802 2802 2802 2801 2800 2799 2798 2797 2796 2795 2794